www.pogodaiklimat.ru

Погода и климат >> Архив погоды >> Россия >> Курганская область >> Шатрово


ПОГОДА в Шатрово

  • Прогноз погоды в Шатрово
  • Монитор погоды в Шатрово

АРХИВ ПОГОДЫ в Шатрово

Время (UTC), дата Ветер
(напр.,м/с)
 
Видим.   Явления Облачность Т
(С)
Тd
(С)
f
(%)
Тe
(С)
Тes
(С)
Комфортность P
(гПа)
Po
(гПа)
Тmin
(С)
Tmax
(С)
R
(мм)
R24
(мм)
S
(см)
00 14.03 штиль 0 10 км слаб. ливневой снег 10/8 600 м
[Cb calv Ac und]
-1.1 -3.0 87 -2 -2 1014.7 1000.3
03 14.03 СВ 1 10 км слаб. ливневой снег 10/10 600 м
[Cb calv]
-1.5 -2.8 91 -4 -4 1012.7 998.3 -1.6 1 42
06 14.03 СВ 3 20 км слаб. ливневой снег 10/10 600 м
[Cb calv]
-1.3 -2.8 90 -6 -6 1010.6 996.3
09 14.03 В 4 20 км {ливн. осадки} 10/10 600 м
[Cb calv]
-0.8 -2.4 89 -7 -7 1007.4 993.2
12 14.03 В 3 20 км слаб. ливневой снег 10/10 600 м
[Cb calv]
-0.1 -1.9 88 -5 -5 1003.4 989.2
15 14.03 В 4 10 км слаб. ливневой дождь 10/10 600 м
[Cb calv]
+0.8 -0.4 92 -5 -5 997.5 983.5 +0.8 4
18 14.03 Ю 3 10 км слаб. ливневой дождь 10/10 600 м
[Cb calv]
+1.6 -0.1 88 -3 -3 993.6 979.6
21 14.03 Ю 5
{10}
10 км {ливн. осадки} 10/10 600 м
[Cb calv]
+0.8 -1.5 85 -5 -5 992.4 978.5
00 15.03 З 6-11
{11}
10 км слаб. ливневой снег 10/10 600 м
[Cb calv]
-3.0 -6.1 79 -10 -10 995.0 980.8
03 15.03 З 8-13
{13}
10 км слаб. ливневой снег {метель} 10/10 600 м
[Cb calv]
-3.4 -6.8 77 -12 -12 997.7 983.5 -3.4 4 42
06 15.03 З 6-12
{16}
10 км слаб. ливневой снег {метель} 8/8 600 м
[Cb calv]
-4.5 -8.2 75 -12 -12 1000.6 986.2 -4.5
09 15.03 З 7-13
{17}
1000 м ливневой снег {метель} 9/9 600 м
[Cb calv]
-4.9 -7.2 84 -13 -13 1002.8 988.3
12 15.03 З 6-12
{18}
4000 м слаб. ливневой снег {метель} 10/10 600 м
[Cb calv]
-4.9 -7.7 81 -13 -13 1005.8 991.3
15 15.03 З 7-13
{16}
10 км позёмок {ливн. осадки} 6/6 600 м
[Cb calv]
-5.2 -9.7 71 -13 -13 1008.3 993.8 -3.4 1
18 15.03 З 7-12
{15}
10 км позёмок {ливн. осадки} 3/3 600 м
[Cb calv]
-5.9 -12.4 60 -14 -14 1010.4 995.8
21 15.03 З 5
{13}
10 км {метель} 4/0
[Ac trans Ci fib]
-6.6 -13.0 60 -14 -14 1012.1 997.4
00 16.03 З 6-11
{11}
10 км {метель} ясно -6.9 -14.4 55 -15 -15 1013.5 998.8
03 16.03 З 5-10
{11}
20 км ясно -7.5 -14.4 58 -15 -14 1015.5 1000.7 -7.8 44
06 16.03 З 6-10
{12}
20 км позёмок 4/0
[Ci fib]
-4.1 -13.4 48 -11 -9 1016.9 1002.3
09 16.03 З 7-10
{12}
20 км {метель} ясно -1.2 -14.6 35 -8 -6 1017.8 1003.4
12 16.03 З 5
{13}
20 км {метель} ясно +0.2 -17.6 25 -5 -4 1019.3 1004.9
15 16.03 З 4
{12}
10 км 3/0
[Ci fib]
-2.6 -14.3 40 -8 -8 1021.2 1006.7 +0.3
18 16.03 З 3 10 км 3/0
[Ci fib]
-5.0 -14.2 48 -10 -10 1023.0 1008.3
21 16.03 З 3 10 км 4/0
[Ci fib]
-6.9 -15.5 50 -12 -12 1024.3 1009.5
00 17.03 ЮЗ 2 10 км 4/0
[Ci fib]
-13.4 -17.3 72 -18 -18 1025.9 1010.6
03 17.03 З 1 20 км 1/0
[Ci fib]
-14.3 -17.6 76 -17 -16 1027.8 1012.5 -16.8 41
06 17.03 штиль 0 20 км 3/0
[Ci fib]
+1.5 -14.8 29 +2 +8 1028.4 1013.9
09 17.03 В 1 20 км 3/0
[Ci fib]
+3.4 -17.2 20 +3 +10 1028.3 1013.9
12 17.03 Ю 2 20 км 1/0
[Ci fib]
+2.6 -14.8 26 +1 +2 1028.7 1014.3
15 17.03 В 1 10 км 1/0
[Ci fib]
-5.5 -12.8 56 -7 -7 1030.3 1015.5 +5.0
18 17.03 В 1 10 км 3/0
[Ci fib]
-11.0 -15.2 71 -13 -13 1031.4 1016.2
21 17.03 штиль 0 10 км 3/0
[Ci fib]
-13.0 -15.5 81 -13 -13 1031.8 1016.5
00 18.03 штиль 0 10 км 3/0
[Ci fib]
-14.9 -17.3 82 -15 -15 1032.7 1017.3
03 18.03 штиль 0 20 км 4/0
[Ac trans Ci fib]
-13.9 -17.1 77 -14 -13 1033.7 1018.3 -16.0 40
06 18.03 В 1 20 км 8/0
[Ci fib]
-3.9 -13.4 48 -6 -0 1033.3 1018.5
09 18.03 ЮЗ 2 20 км 6/0
[Ci fib]
+2.6 -13.5 29 +1 +6 1033.0 1018.5
12 18.03 ЮВ 2 20 км 6/0
[Ci fib]
+2.6 -12.9 31 +1 +2 1032.2 1017.8
15 18.03 ЮВ 1 10 км 9/0
[Ci fib]
-5.4 -11.7 61 -7 -7 1032.7 1017.8 +4.3
18 18.03 Ю 1 10 км 10/0
[Ac trans Ci fib]
-3.2 -9.3 63 -5 -5 1032.5 1017.7
21 18.03 В 1 10 км 10/0
[Ac trans Ci fib]
-8.0 -10.9 80 -10 -10 1033.1 1018.0
00 19.03 ЮВ 1 10 км 8/0
[Ci fib]
-10.4 -12.3 86 -13 -13 1032.9 1017.8
03 19.03 штиль 0 20 км 9/0
[Ci fib]
-12.3 -14.2 86 -12 -11 1033.2 1017.9 -13.6 40
06 19.03 СВ 1 20 км 10/0
[Ci fib]
-5.0 -9.5 71 -7 -2 1032.8 1017.9
09 19.03 ЮВ 2 20 км 10/0
[Ci fib]
0.0 -9.3 50 -3 +2 1032.1 1017.5
12 19.03 ЮЗ 2 20 км 10/0
[Ci fib]
+1.4 -12.8 34 -1 0 1031.6 1017.1
15 19.03 ЮВ 2 10 км 4/0
[Ci fib]
-3.4 -10.1 60 -7 -7 1031.6 1016.8 +1.7
18 19.03 ЮВ 1 10 км ясно -12.1 -14.3 84 -14 -14 1031.9 1016.7
21 19.03 штиль 0 10 км 3/0
[Ci fib]
-13.4 -15.2 86 -13 -13 1031.6 1016.3
00 20.03 ЮВ 1 10 км ясно -16.7 -19.1 82 -19 -19 1030.7 1015.2
03 20.03 штиль 0 20 км ясно -14.6 -16.8 83 -15 -13 1029.9 1014.5 -18.9 40
06 20.03 СВ 2 20 км ясно -5.9 -10.6 69 -10 -4 1028.6 1013.7
09 20.03 ЮВ 1 20 км ясно +2.4 -11.3 36 +2 +9 1026.5 1012.1
12 20.03 ЮВ 2 20 км 3/0
[Ci fib]
+2.9 -10.1 38 +1 +2 1025.0 1010.7
15 20.03 ЮВ 1 10 км 3/0
[Ci fib]
-4.1 -10.6 61 -6 -6 1024.4 1009.7 +4.5
18 20.03 Ю 1 10 км 6/0
[Ci fib]
-9.6 -12.7 78 -12 -12 1023.8 1008.8

 

Местоположение метеостанции Шатрово (Курганская область, Россия): широта 56.52 долгота 64.65 высота над уровнем моря 114 м.

В архиве по умолчанию представлена погода в Шатрово за последнюю неделю. Архивные данные за месяц целиком и за предыдущие месяцы, начиная с января 2011 года, Вы можете получить, выбрав интересующий диапазон дат из раскрывающегося списка и нажав кнопку "Ввод!".


*Определитесь, кто Вы:
робот инопланетянин человек

Внимание! Время в таблицах - всемирное. Для получения местного времени необходимо прибавить поправку, которая равна 5 ч.

Смотрите также архив погоды в соседних городах и на ближайших метеорологических станциях:

Погода в Исетском (Тюменская область, Россия) (42 км)
Погода в Бутке (Свердловская область, Россия) (58 км)
Погода в Тугулыме (Свердловская область, Россия) (61 км)
Погода в Шадринске (Курганская область, Россия) (79 км)
Погода в Тюмени (Тюменская область, Россия) (82 км)
Погода в Памятном (Курганская область, Россия) (85 км)
Погода в Ялуторовске (Тюменская область, Россия) (106 км)
Погода в Далматово (Курганская область, Россия) (109 км)
Погода в Камышлове (Свердловская область, Россия) (123 км)
Погода в Кургане (Курганская область, Россия) (128 км)

Пояснения к столбцам:

Ветер - указаны скорость ветра в м/с - средняя за 10 мин, порывы в срок и между сроками (в фигурных скобках) и направление, откуда дует ветер: С - северный, СВ - северо-восточный, В - восточный, ЮВ - юго-восточный, Ю - южный, ЮЗ - юго-западный, З - западный, СЗ - северо-западный.
Видимость - горизонтальная дальность видимости в метрах или километрах. При видимости от 1 до 10 км при отсутствии осадков обычно наблюдается дымка, при ухудшении видимости до 1 км и менее - туман. В сухую погоду видимость может ухудшаться дымом, пылью или мглою.
Явления - указаны атмосферные явления, наблюдавшиеся в срок или в последний час перед сроком; фигурными скобками обозначены явления, наблюдавшиеся между сроками (за 1-3 часа до срока); квадратными скобками обозначены град или гололедные отложения с указанием их диаметра в мм.
Облачность - указаны через наклонную черту общая и нижняя облачность в баллах и высота нижней границы облаков в метрах; квадратными скобками обозначены формы облаков: Ci - перистые, Cs - перисто-слоистые, Cc - перисто-кучевые, Ac - высококучевые, As - высокослоистые, Sc - слоисто-кучевые, Ns - слоисто-дождевые, Cu - кучевые, Cb - кучево-дождевые. Подробнее классификацию облаков см. в Атласе облаков (PDF).
T - Температура воздуха - температура, измеренная на высоте 2 м над землей.
Td - Температура точки росы - температура, при понижении до которой содержащийся в воздухе водяной пар достигнет насыщения.
f - Относительная влажность воздуха - влажноcть воздуха, измеренная на высоте 2 м над землей.
Te - Эффективная температура - температура, которую ощущает одетый по сезону человек в тени. Характеристика душности погоды. При расчете учитывается влияние влажности воздуха и скорости ветра на теплоощущения человека.
Tes - Эффективная температура на солнце - температура, которую ощущает человек, с поправкой на солнечный нагрев. Характеристика знойности погоды. Зависит от высоты солнца над горизонтом, облачности и скорости ветра. Ночью, в пасмурную погоду, а также при ветре 12 м/с и более поправка равна нулю.
P - Атмосферное давление - приведенное к уровню моря атмосферное давление.
Po - Атмосферное давление - измеренное на уровне метеостанции атмосферное давление.
Tmin - Минимальная температура - минимум температуры воздуха на высоте 2 м над землей.
Tmax - Максимальная температура - максимум температуры воздуха на высоте 2 м над землей.
R - Количество осадков - Количество выпавших осадков за период времени, мм. При наведении курсора мыши на число - период времени, за который выпало указанное количество осадков.
R24 - Количество осадков - Количество выпавших осадков за 24 часа, мм.
S - Снежный покров - Высота снежного покрова, см. При наведении курсора мыши на число - состояние снежного покрова и степень покрытия местности в баллах.